Marshalltown, IA

3:42 PM CDT on October 20, 2017 (GMT -0500)
Marshalltown Municipal

Weather History for KMIW - December, 2014

Change the Weather History Date:

Tuesday, December 30, 2014

  Actual Average Record
Temperature  
Mean Temperature 5 °F 19 °F  
Max Temperature 11 °F 28 °F 76 °F (2015)
Min Temperature -1 °F 11 °F -10 °F (2013)
Degree Days  
Heating Degree Days 60 46  
Month to date heating degree days 1076 1269  
Since 1 July heating degree days 2762 2765  
Cooling Degree Days 0 0  
Month to date cooling degree days 0 0  
Year to date cooling degree days 651 728  
Moisture  
Dew Point -5 °F    
Average Humidity 67    
Maximum Humidity 83    
Minimum Humidity 50    
Precipitation  
Precipitation 0.00 in 0.03 in 0.63 in (2011)
Month to date precipitation 1.25 0.97  
Sea Level Pressure  
Sea Level Pressure 30.80 in    
Wind  
Wind Speed 12 mph (NW)    
Max Wind Speed 17 mph    
Max Gust Speed 21 mph    
Visibility 10 miles    
Events      
T = Trace of Precipitation, MM = Missing Value Source: NWS Daily Summary

Daily Weather History Graph

Daily Weather History Graph

Search for Another Location

Airport or City:

Trip Planner

Search our weather history database for the weather conditions in past years. The results will help you decide how hot, cold, wet, or windy it might be!

Date:

Astronomy

Dec. 30, 2014 Rise Set
Actual Time 7:39 AM CST 4:48 PM CST
Civil Twilight 7:08 AM CST 5:20 PM CST
Nautical Twilight 6:32 AM CST 5:55 PM CST
Astronomical Twilight 5:58 AM CST 6:29 PM CST
Moon 1:05 PM CST (12/30) 1:59 AM CST (12/30)
Length of Visible Light 10h 12m
Length of Day
9h 09m
Waxing Gibbous, 71% of the Moon is Illuminated
Dec 30
Waxing Gibbous
Jan 4
Full
Jan 13
Last Quarter
Jan 20
New
Jan 26
First Quarter

Hourly Weather History & Observations

Time (CST) Temp. Windchill Dew Point Humidity Pressure Visibility Wind Dir Wind Speed Gust Speed Precip Events Conditions
12:53 AM 3.9 °F -14.3 °F -2.0 °F 76% 30.72 in 10.0 mi North 15.0 mph - N/A   Clear
1:53 AM 3.9 °F -12.2 °F -2.0 °F 76% 30.73 in 10.0 mi North 11.5 mph - N/A   Clear
2:53 AM 3.0 °F -14.8 °F -2.9 °F 76% 30.74 in 10.0 mi North 13.8 mph - N/A   Clear
3:53 AM 1.9 °F -12.9 °F -4.0 °F 76% 30.76 in 10.0 mi NNW 9.2 mph - N/A   Clear
4:53 AM 1.9 °F -13.8 °F -5.1 °F 72% 30.77 in 10.0 mi NNW 10.4 mph - N/A   Clear
5:53 AM 1.0 °F -14.0 °F -5.1 °F 75% 30.79 in 10.0 mi NW 9.2 mph - N/A   Clear
6:53 AM -0.0 °F -16.3 °F -6.0 °F 76% 30.82 in 10.0 mi NW 10.4 mph - N/A   Clear
7:53 AM -0.9 °F -15.3 °F -6.0 °F 79% 30.85 in 10.0 mi WNW 8.1 mph - N/A   Clear
8:53 AM 1.0 °F -14.0 °F -5.1 °F 75% 30.85 in 10.0 mi NW 9.2 mph - N/A   Clear
9:53 AM 3.0 °F -12.5 °F -4.0 °F 73% 30.86 in 10.0 mi NNW 10.4 mph - N/A   Clear
10:53 AM 6.1 °F -7.8 °F -2.9 °F 67% 30.87 in 10.0 mi WNW 9.2 mph - N/A   Clear
11:53 AM 9.0 °F -5.9 °F -5.1 °F 53% 30.85 in 10.0 mi NW 11.5 mph - N/A   Clear
12:53 PM 9.0 °F -6.6 °F -2.9 °F 59% 30.81 in 10.0 mi NW 12.7 mph - N/A   Clear
1:53 PM 10.0 °F -5.9 °F -6.0 °F 48% 30.79 in 10.0 mi NW 13.8 mph - N/A   Clear
2:53 PM 10.0 °F -5.9 °F -5.1 °F 51% 30.79 in 10.0 mi NW 13.8 mph - N/A   Clear
3:53 PM 7.0 °F -9.8 °F -6.0 °F 55% 30.81 in 10.0 mi NW 13.8 mph - N/A   Clear
4:53 PM 5.0 °F -11.6 °F -6.0 °F 61% 30.82 in 10.0 mi WNW 12.7 mph - N/A   Clear
5:53 PM 3.0 °F -12.5 °F -5.1 °F 69% 30.81 in 10.0 mi WNW 10.4 mph - N/A   Clear
6:53 PM 1.9 °F -13.8 °F -5.1 °F 72% 30.80 in 10.0 mi WNW 10.4 mph - N/A   Clear
7:53 PM 1.9 °F -16.2 °F -4.0 °F 76% 30.80 in 10.0 mi WNW 13.8 mph - N/A   Clear
8:53 PM 1.9 °F -15.5 °F -5.1 °F 72% 30.79 in 10.0 mi WNW 12.7 mph - N/A   Clear
9:53 PM 1.0 °F -16.6 °F -6.0 °F 72% 30.80 in 10.0 mi WNW 12.7 mph - N/A   Clear
10:53 PM -0.0 °F -17.1 °F -6.0 °F 76% 30.79 in 10.0 mi West 11.5 mph - N/A   Clear
11:53 PM -0.0 °F -17.1 °F -7.1 °F 72% 30.76 in 10.0 mi WNW 11.5 mph - N/A   Clear